Cloud_Cover
0 0 0 0 0 0 0 0 0 0 0 0 0 0 0 0 8 9 56 70 88 70 90 88 78 7 0 0 0 0 0 0 0 0 0 1 3 5 5 82 100 70 72
0 0 0 0 0 0 0 0 0 0 0 0 0 0 0 0 4 96 65 24 98 100 81 74 82 18 1 3 0 0 0 0 0 0 0 0 4 5 6 89 100 40 100
0 0 0 0 0 0 0 0 0 0 0 0 0 0 0 8 48 11 24 100 99 90 93 91 59 12 3 6 0 0 0 0 0 0 0 0 1 2 29 69 100 82 66
0 0 0 0 0 0 0 0 0 0 0 5 4 0 8 3 7 1 67 100 59 86 78 28 5 4 5 10 3 0 0 0 0 0 0 0 5 5 12 90 100 100 82
0 0 0 0 0 0 0 0 0 0 0 0 0 4 1 4 17 36 90 70 38 89 87 4 33 11 5 5 5 2 0 0 0 0 0 0 2 8 25 88 100 98 73
0 0 0 0 0 0 0 0 0 0 0 0 1 3 5 5 52 0 100 100 44 100 100 4 5 16 14 60 5 46 2 0 0 0 0 0 0 24 36 100 99 100 95
0 0 0 0 0 0 0 0 0 0 0 2 0 0 0 9 7 82 100 62 0 77 52 5 8 2 8 69 3 5 5 1 0 0 0 0 0 4 0 85 100 77 56
0 0 0 0 0 0 0 0 0 0 0 0 0 0 12 22 32 99 53 7 1 45 63 56 22 10 5 5 0 0 0 5 8 0 0 0 0 1 18 83 99 96 100
0 0 0 0 0 0 0 0 0 0 0 0 3 5 21 65 96 97 78 7 0 43 100 99 8 5 5 4 5 3 0 4 7 0 0 0 0 0 0 8 0 6 88
5 2 4 4 0 0 0 0 0 0 0 0 1 8 62 41 50 96 84 0 0 2 99 17 5 5 0 7 11 91 4 0 4 5 1 0 0 38 34 2 36 58 51
7 100 25 42 4 6 5 4 0 0 0 0 6 79 52 34 22 83 37 0 0 0 100 42 5 5 0 4 11 53 49 5 0 1 5 0 0 0 62 48 26 61 81
93 89 5 13 37 25 5 54 64 77 11 0 89 92 97 66 1 56 64 16 0 0 90 73 6 5 4 1 50 100 100 72 5 0 5 4 0 0 8 100 33 99 99
100 71 58 91 4 5 33 9 6 12 5 38 100 100 100 63 6 15 100 63 1 2 10 100 7 6 5 1 14 75 100 100 58 1 1 4 5 0 78 11 1 0 49
100 100 99 5 5 5 4 1 30 12 5 24 71 82 99 81 5 5 16 34 3 0 0 100 35 8 89 7 5 62 100 100 92 5 0 3 1 1 95 100 100 100 83
100 74 99 45 5 4 0 39 8 5 48 75 49 62 55 44 84 11 61 76 22 18 0 56 91 78 100 77 29 6 85 100 100 89 5 0 2 4 4 55 89 69 84
100 100 97 83 7 4 2 45 90 53 100 100 30 20 22 44 98 86 90 100 97 99 71 42 99 45 91 93 62 82 99 100 100 100 53 3 5 4 2 4 55 44 84
78 100 62 49 5 5 1 0 3 42 100 100 98 26 100 35 92 100 48 100 86 72 39 96 100 61 33 100 99 59 73 100 100 100 54 1 50 4 0 0 30 70 63
99 80 80 82 2 0 0 0 0 5 5 5 76 59 27 6 90 99 100 100 92 84 10 74 98 92 80 58 100 100 76 86 100 100 100 6 72 4 1 0 0 7 48
91 99 100 89 98 52 22 11 4 4 5 51 28 37 32 21 21 100 100 100 85 13 5 5 11 100 74 72 99 100 100 100 95 100 49 35 5 5 5 0 2 0 0
100 100 100 100 93 11 49 93 31 20 75 69 61 91 100 99 95 76 88 98 97 8 5 5 5 95 100 99 98 100 100 100 100 100 90 32 89 100 70 4 0 0 0
100 100 100 100 99 100 80 99 75 92 93 100 97 77 40 88 100 100 97 100 100 57 5 5 5 61 36 100 100 100 100 100 100 100 100 99 100 100 100 35 0 5 5
100 100 100 100 100 100 100 97 100 100 89 49 71 55 97 100 100 100 100 80 100 100 56 3 18 100 100 100 100 100 100 100 100 100 100 100 100 100 71 8 5 5 5
100 100 100 100 88 100 100 100 100 100 99 100 100 52 39 77 100 42 40 87 100 100 100 84 7 99 100 100 100 100 100 100 100 100 100 100 100 100 91 66 4 9 5
100 100 100 100 100 100 100 100 100 100 95 93 96 100 94 100 94 72 47 88 99 100 100 100 96 100 100 100 100 100 100 100 96 100 100 99 57 20 6 72 79 100 97
100 100 100 100 100 75 100 100 100 100 100 100 100 100 100 100 100 99 100 100 100 100 100 100 100 100 100 100 100 100 100 100 100 100 99 90 100 58 33 73 89 100 45
100 100 100 100 100 100 100 100 100 100 100 100 100 100 100 100 100 100 99 90 82 100 100 100 100 100 100 100 100 100 100 100 99 100 100 91 100 57 96 100 97 100 96